Hourly Data Report for September 02, 2017

All times are specified in Local Standard Time (LST). Add 1 hour to adjust for Daylight Saving Time where and when it is observed.

GRAND MANAN SAR CS
NEW BRUNSWICK

44°42'43.400" N
66°48'06.900" W
78.20 m
8101925
71030
XGM

Download Data

Hourly Data (September 2017)
Hourly Data Report for September 2, 2017
Temp Definition
°C
Dew Point Temp Definition
°C
Rel Hum Definition
%
Wind Dir Definition
10's deg

Wind Spd Definition
km/h
Visibility Definition
km
Stn Press Definition
kPa
Hmdx Definition


Wind Chill Definition


Weather Definition


TIME
00:00 11.3 5.2 66 31 16   100.65     LegendNANA
01:00 10.7 5.5 70 31 13   100.66     LegendNANA
02:00 10.9 5.4 69 32 14   100.70     LegendNANA
03:00 10.1 5.4 73 31 9   100.72     LegendNANA
04:00 9.1 5.3 77 30 6   100.76     LegendNANA
05:00 9.0 5.6 79 29 11   100.84     LegendNANA
06:00 8.5 5.8 83 29 10   100.92     LegendNANA
07:00 9.8 6.1 78 29 11   100.99     LegendNANA
08:00 10.3 6.5 77 30 11   101.04     LegendNANA
09:00 11.9 6.4 69 32 16   101.08     LegendNANA
10:00 12.8 6.6 66 33 19   101.09     LegendNANA
11:00 12.5 5.8 64 32 15   101.11     LegendNANA
12:00 13.5 6.2 61 35 10   101.13     LegendNANA
13:00 15.8 6.4 53 28 10   101.11     LegendNANA
14:00 16.7 6.3 50 1 9   101.10     LegendNANA
15:00 16.1 7.0 55 24 12   101.11     LegendNANA
16:00 15.8 7.5 58 25 13   101.12     LegendNANA
17:00 15.2 6.5 56 24 14   101.12     LegendNANA
18:00 13.9 7.5 65 23 12   101.18     LegendNANA
19:00 12.6 7.9 73 25 10   101.24     LegendNANA
20:00 11.2 7.8 80 23 7   101.31     LegendNANA
21:00 11.1 8.7 85 26 7   101.34     LegendNANA
22:00 8.3 6.8 90 29 3   101.38     LegendNANA
23:00 7.6 7.0 96 23 3   101.40     LegendNANA

Notes on Data Quality.

Legend

  • E = Estimated
  • M = Missing
  • NA = Not Available
  • ‡ = Partner data that is not subject to review by the National Climate Archives
Date modified: